Chignik, AK

3:36 PM AKDT on July 27, 2017 (GMT -0800)
Chignik

Weather History for PAJC - November, 2013

Change the Weather History Date:

Thursday, November 7, 2013

  Actual Average Record
Temperature  
Mean Temperature 40 °F -  
Max Temperature 44 °F 39 °F 50 °F (2003)
Min Temperature 37 °F 33 °F 24 °F (2012)
Degree Days  
Heating Degree Days 24    
Moisture  
Dew Point 32 °F    
Average Humidity 69    
Maximum Humidity 87    
Minimum Humidity 57    
Precipitation  
Precipitation 0.06 in - - ()
Sea Level Pressure  
Sea Level Pressure 29.79 in    
Wind  
Wind Speed 14 mph (West)    
Max Wind Speed 29 mph    
Max Gust Speed 44 mph    
Visibility 10 miles    
Events      
Averages and records for this station are not official NWS values.
T = Trace of Precipitation, MM = Missing Value Source: NWS Daily Summary

Daily Weather History Graph

Daily Weather History Graph

Search for Another Location

Airport or City:

Trip Planner

Search our weather history database for the weather conditions in past years. The results will help you decide how hot, cold, wet, or windy it might be!

Date:

Astronomy

Nov. 07, 2013 Rise Set
Actual Time 8:55 AM AKST 5:38 PM AKST
Civil Twilight 8:14 AM AKST 6:19 PM AKST
Nautical Twilight 7:29 AM AKST 7:04 PM AKST
Astronomical Twilight 6:45 AM AKST 7:47 PM AKST
Moon 1:22 PM AKST (11/7) 9:56 PM AKST (11/7)
Length of Visible Light 10h 04m
Length of Day
8h 42m
Waxing Crescent, 24% of the Moon is Illuminated
Nov 7
Waxing Crescent
Nov 9
First Quarter
Nov 17
Full
Nov 25
Last Quarter
Dec 2
New

Hourly Weather History & Observations

Time (AKST) Temp. Windchill Dew Point Humidity Pressure Visibility Wind Dir Wind Speed Gust Speed Precip Events Conditions
12:16 AM 44.6 °F 40.7 °F 35.6 °F 71% 29.56 in 10.0 mi SE 6.9 mph - N/A   Scattered Clouds
12:36 AM 44.6 °F 40.2 °F 35.6 °F 71% 29.56 in 10.0 mi SSW 8.1 mph 16.1 mph N/A   Mostly Cloudy
12:56 AM 44.6 °F 40.7 °F 35.6 °F 71% 29.56 in 10.0 mi NNW 6.9 mph - N/A   Mostly Cloudy
1:16 AM 44.6 °F 41.4 °F 37.4 °F 76% 29.56 in 10.0 mi SSE 5.8 mph 21.9 mph 0.01 in   Overcast
1:36 AM 42.8 °F - 35.6 °F 76% 29.55 in 10.0 mi Calm Calm - 0.01 in   Overcast
1:56 AM 42.8 °F 38.0 °F 33.8 °F 70% 29.55 in 10.0 mi WSW 8.1 mph - 0.01 in   Overcast
2:16 AM 44.6 °F 40.7 °F 33.8 °F 66% 29.55 in 10.0 mi WSW 6.9 mph 19.6 mph N/A   Mostly Cloudy
2:36 AM 44.6 °F 38.8 °F 33.8 °F 66% 29.55 in 10.0 mi WSW 11.5 mph 17.3 mph N/A   Overcast
2:56 AM 44.6 °F 37.4 °F 33.8 °F 66% 29.54 in 10.0 mi SW 16.1 mph 19.6 mph N/A   Overcast
3:16 AM 44.6 °F 36.6 °F 33.8 °F 66% 29.54 in 10.0 mi SSW 19.6 mph 26.5 mph N/A   Overcast
3:36 AM 44.6 °F 38.1 °F 33.8 °F 66% 29.55 in 10.0 mi WSW 13.8 mph 23.0 mph N/A   Overcast
3:56 AM 42.8 °F 36.2 °F 35.6 °F 76% 29.55 in 10.0 mi SW 12.7 mph - N/A   Mostly Cloudy
4:16 AM 42.8 °F 37.0 °F 35.6 °F 76% 29.56 in 10.0 mi WSW 10.4 mph - N/A   Mostly Cloudy
4:36 AM 42.8 °F 36.6 °F 33.8 °F 70% 29.57 in 10.0 mi West 11.5 mph - N/A   Mostly Cloudy
4:56 AM 42.8 °F 38.0 °F 33.8 °F 70% 29.58 in 10.0 mi WNW 8.1 mph - N/A   Overcast
5:16 AM 42.8 °F 37.5 °F 33.8 °F 70% 29.59 in 10.0 mi NW 9.2 mph - N/A   Overcast
5:36 AM 39.2 °F 29.8 °F 33.8 °F 81% 29.61 in 10.0 mi WNW 18.4 mph 27.6 mph N/A   Overcast
5:56 AM 39.2 °F 30.2 °F 33.8 °F 81% 29.61 in 10.0 mi WNW 17.3 mph 26.5 mph N/A   Mostly Cloudy
6:16 AM 39.2 °F 31.6 °F 33.8 °F 81% 29.62 in 10.0 mi WNW 12.7 mph 17.3 mph N/A   Overcast
6:36 AM 39.2 °F 30.2 °F 33.8 °F 81% 29.63 in 10.0 mi West 17.3 mph 23.0 mph N/A   Overcast
6:56 AM 39.2 °F 30.5 °F 33.8 °F 81% 29.65 in 10.0 mi West 16.1 mph 23.0 mph N/A   Mostly Cloudy
7:16 AM 39.2 °F 31.2 °F 33.8 °F 81% 29.65 in 10.0 mi West 13.8 mph 18.4 mph N/A   Overcast
7:36 AM 39.2 °F 29.8 °F 33.8 °F 81% 29.65 in 10.0 mi WNW 18.4 mph 28.8 mph N/A   Overcast
7:56 AM 39.2 °F 29.3 °F 32.0 °F 75% 29.65 in 10.0 mi WNW 20.7 mph 25.3 mph N/A   Overcast
8:16 AM 41.0 °F 33.1 °F 30.2 °F 65% 29.66 in 10.0 mi WNW 15.0 mph 28.8 mph N/A   Overcast
8:36 AM 41.0 °F 32.8 °F 30.2 °F 65% 29.67 in 10.0 mi WNW 16.1 mph 28.8 mph N/A   Mostly Cloudy
8:56 AM 41.0 °F 33.5 °F 30.2 °F 65% 29.67 in 10.0 mi WNW 13.8 mph 26.5 mph N/A   Scattered Clouds
9:16 AM 39.2 °F 29.3 °F 30.2 °F 70% 29.68 in 10.0 mi West 20.7 mph 32.2 mph N/A   Clear
9:36 AM 41.0 °F 33.5 °F 28.4 °F 61% 29.70 in 10.0 mi West 13.8 mph 27.6 mph N/A   Partly Cloudy
9:56 AM 41.0 °F 33.9 °F 28.4 °F 61% 29.71 in 10.0 mi West 12.7 mph 21.9 mph 0.01 in   Partly Cloudy
10:16 AM 41.0 °F 31.9 °F 28.4 °F 61% 29.71 in 10.0 mi West 19.6 mph 33.4 mph N/A   Partly Cloudy
10:36 AM 41.0 °F 30.9 °F 30.2 °F 65% 29.73 in 10.0 mi West 24.2 mph 35.7 mph N/A   Scattered Clouds
10:56 AM 41.0 °F 30.7 °F 30.2 °F 65% 29.73 in 10.0 mi West 25.3 mph 33.4 mph N/A   Clear
11:16 AM 41.0 °F 31.9 °F 30.2 °F 65% 29.75 in 10.0 mi WNW 19.6 mph 27.6 mph N/A   Partly Cloudy
11:36 AM 41.0 °F 31.4 °F 32.0 °F 70% 29.76 in 10.0 mi NW 21.9 mph 31.1 mph N/A   Mostly Cloudy
11:56 AM 41.0 °F 31.1 °F 32.0 °F 70% 29.77 in 10.0 mi NNW 23.0 mph 31.1 mph N/A   Mostly Cloudy
12:16 PM 41.0 °F 31.6 °F 32.0 °F 70% 29.78 in 10.0 mi WNW 20.7 mph 29.9 mph N/A   Mostly Cloudy
12:36 PM 39.2 °F 29.8 °F 33.8 °F 81% 29.79 in 10.0 mi WNW 18.4 mph 28.8 mph N/A   Mostly Cloudy
12:56 PM 39.2 °F 29.0 °F 33.8 °F 81% 29.80 in 10.0 mi WNW 21.9 mph 34.5 mph N/A   Mostly Cloudy
1:16 PM 39.2 °F 29.8 °F 33.8 °F 81% 29.81 in 10.0 mi WNW 18.4 mph 29.9 mph N/A   Mostly Cloudy
1:36 PM 39.2 °F 29.0 °F 33.8 °F 81% 29.81 in 10.0 mi West 21.9 mph 27.6 mph N/A   Overcast
1:56 PM 39.2 °F 28.3 °F 33.8 °F 81% 29.82 in 10.0 mi West 25.3 mph 33.4 mph N/A   Overcast
2:16 PM 37.4 °F 26.4 °F 33.8 °F 87% 29.83 in 10.0 mi West 23.0 mph 29.9 mph 0.01 in   Overcast
2:36 PM 37.4 °F 28.5 °F 33.8 °F 87% 29.85 in 4.0 mi WNW 15.0 mph 26.5 mph 0.01 in   Mostly Cloudy
2:56 PM 39.2 °F 27.6 °F 30.2 °F 70% 29.85 in 10.0 mi West 28.8 mph 36.8 mph 0.02 in   Mostly Cloudy
3:16 PM 39.2 °F 29.6 °F 30.2 °F 70% 29.86 in 10.0 mi WNW 19.6 mph 34.5 mph N/A   Mostly Cloudy
3:36 PM 39.2 °F 27.8 °F 32.0 °F 75% 29.87 in 7.0 mi West 27.6 mph 36.8 mph N/A   Overcast
3:56 PM 39.2 °F 29.0 °F 30.2 °F 70% 29.88 in 10.0 mi West 21.9 mph 34.5 mph N/A   Overcast
4:16 PM 39.2 °F 28.5 °F 30.2 °F 70% 29.89 in 10.0 mi West 24.2 mph 41.4 mph 0.02 in   Mostly Cloudy
4:36 PM 37.4 °F 26.4 °F 30.2 °F 75% 29.91 in 8.0 mi West 23.0 mph 43.7 mph 0.02 in   Mostly Cloudy
4:56 PM 39.2 °F 28.7 °F 30.2 °F 70% 29.92 in 10.0 mi WNW 23.0 mph 33.4 mph 0.02 in   Overcast
5:16 PM 39.2 °F 28.5 °F 30.2 °F 70% 29.92 in 10.0 mi WNW 24.2 mph 35.7 mph N/A   Overcast
5:36 PM 39.2 °F 27.8 °F 30.2 °F 70% 29.93 in 10.0 mi West 27.6 mph 36.8 mph N/A   Overcast
5:56 PM 39.2 °F 27.8 °F 28.4 °F 65% 29.95 in 10.0 mi West 27.6 mph 34.5 mph N/A   Overcast
6:16 PM 41.0 °F 30.2 °F 28.4 °F 61% 29.96 in 10.0 mi WNW 27.6 mph 39.1 mph N/A   Overcast
6:36 PM 41.0 °F 31.6 °F 28.4 °F 61% 29.97 in 10.0 mi WNW 20.7 mph 33.4 mph N/A   Overcast
6:56 PM 41.0 °F 31.4 °F 28.4 °F 61% 29.98 in 10.0 mi NW 21.9 mph 34.5 mph N/A   Overcast
7:16 PM 39.2 °F 29.3 °F 28.4 °F 65% 29.99 in 10.0 mi WNW 20.7 mph 29.9 mph N/A   Overcast
7:36 PM 41.0 °F 32.2 °F 26.6 °F 57% 29.99 in 10.0 mi WNW 18.4 mph 28.8 mph N/A   Mostly Cloudy
7:56 PM 41.0 °F 31.9 °F 30.2 °F 65% 30.01 in 10.0 mi WNW 19.6 mph 28.8 mph N/A   Mostly Cloudy
8:16 PM 41.0 °F 32.5 °F 28.4 °F 61% 30.01 in 10.0 mi NW 17.3 mph 28.8 mph N/A   Overcast
8:36 PM 41.0 °F 32.5 °F 28.4 °F 61% 30.02 in 10.0 mi West 17.3 mph 32.2 mph N/A   Overcast
8:56 PM 41.0 °F 32.5 °F 28.4 °F 61% 30.03 in 10.0 mi West 17.3 mph 25.3 mph N/A   Overcast
9:16 PM 41.0 °F 33.9 °F 28.4 °F 61% 30.04 in 10.0 mi WNW 12.7 mph 21.9 mph N/A   Overcast
9:36 PM 41.0 °F 32.5 °F 28.4 °F 61% 30.05 in 10.0 mi West 17.3 mph 23.0 mph N/A   Overcast
9:56 PM 41.0 °F 32.5 °F 30.2 °F 65% 30.05 in 10.0 mi NW 17.3 mph 24.2 mph N/A   Overcast
10:16 PM 41.0 °F 33.1 °F 28.4 °F 61% 30.05 in 10.0 mi NW 15.0 mph 31.1 mph N/A   Overcast
10:36 PM 42.8 °F 34.3 °F 28.4 °F 57% 30.06 in 10.0 mi West 19.6 mph 29.9 mph N/A   Overcast
10:56 PM 41.0 °F 32.2 °F 28.4 °F 61% 30.07 in 10.0 mi WNW 18.4 mph 27.6 mph N/A   Overcast
11:16 PM 42.8 °F 34.8 °F 28.4 °F 57% 30.07 in 10.0 mi West 17.3 mph 24.2 mph N/A   Overcast
11:36 PM 42.8 °F 35.8 °F 28.4 °F 57% 30.09 in 10.0 mi NW 13.8 mph 21.9 mph N/A   Overcast
11:56 PM 41.0 °F 33.5 °F 30.2 °F 65% 30.10 in 10.0 mi North 13.8 mph 21.9 mph N/A   Overcast